カタログに戻る

OPS 1948

運用中軍事MEO
NORAD 11558·PAYLOAD·🇺🇸 United States

打ち上げ Oct 1, 1979 から Cape Canaveral Space Force Station

Loading…

次のパス (今後24時間)

TLE

最新Source: Space-Track

元期: Sep 14, 2026, 13:54 UTC

1 11558U 79086A   26257.57917436 -.00000038  00000-0  00000-0 0  9996
2 11558   6.0964  12.4262 1310555  78.6326 120.3867  1.00209444 27107

AllMySatでOPS 1948をリアルタイム追跡

Download on the App Store